Cosmos 1844 Rocket - Orbit

View from above orbital plane
View from above orbital plane
View from above satellite
View from above satellite

Ground track
Ground track

The orbit data is extracted from the following two-line orbital elements,

1 17974U 87041B   13168.15705953 -.00000274  00000-0 -11212-3 0  8547
2 17974 071.0097 107.7018 0011644 105.7276 348.0936 14.17043593349693
Epoch (UTC): 17 June 2013 03:46:09
Eccentricity: 0.0011644
inclination: 71.0097°
perigee height: 827 km
apogee height: 844 km
right ascension of ascending node: 107.7018°
argument of perigee: 105.7276°
revolutions per day: 14.17043593
mean anomaly at epoch: 348.0936°
orbit number at epoch: 34969

The dashed part of the orbit path shows where the satellite is in the earth's shadow,  

Developed and maintained by Chris Peat, Heavens-Above GmbH. Please read the updated FAQ before sending e-mail. Imprint. DLR